GMMXLPLA

Guest
Details From GMMX - MENARA
To LPLA - LAJES
Flight Number -
Tags generated
Created
Modified
Stats Distance 1,086 nm / 2,011 km
Max Altitude 34,000 ft / 10,363 m
Waypoints 17
Social Downloads 17
Likes 0
Share VATSIM

Download

Looking for another format? Having issues loading an existing format? Contact us
Advertisement - Login to hide

Notes

Basic altitude profile: - Ascent Rate: 2500ft/min - Ascent Speed: 250kts - Cruise Altitude: 35000ft - Cruise Speed: 420kts - Descent Rate: 1500ft/min - Descent Speed: 250kts Options: - Use NATs: no - Use PACOTS: no - Use low airways: no - Use high airways: yes

Route

GMMX BARAM 3300N01000W AMETA ATLUX NEVEL LUPEX 3300N01500W SNT UL600 IRKID 3500N02000W ETROX H104 VSM H100 VMG25 LPLA

ID Type Via Altitude Latitude Longitude Leg Dist Tot Dist Heading (true) Name
O GMMX APT - 0 ft / 0 m 31.60692˚ -8.03627˚ - 0 nm - MENARA
BARAM FIX - 20,800 ft / 6,340 m 32.24694˚ -8.90000˚ 58 nm 58 nm 311° / 311° -
3300N01000W LATLON - 34,000 ft / 10,363 m 33.00000˚ -10.00000˚ 71 nm 130 nm 309° / 309° -
AMETA FIX - 34,000 ft / 10,363 m 32.99750˚ -10.14833˚ 7 nm 137 nm 269° / 269° -
ATLUX FIX - 34,000 ft / 10,363 m 32.99750˚ -11.55167˚ 70 nm 208 nm 270° / 270° -
NEVEL FIX - 34,000 ft / 10,363 m 32.99750˚ -12.67167˚ 56 nm 264 nm 270° / 270° -
LUPEX FIX - 34,000 ft / 10,363 m 32.99750˚ -13.95500˚ 64 nm 329 nm 270° / 270° -
3300N01500W LATLON - 34,000 ft / 10,363 m 33.00000˚ -15.00000˚ 52 nm 381 nm 270° / 270° -
SNT VOR - 34,000 ft / 10,363 m 33.09028˚ -16.35056˚ 68 nm 450 nm 275° / 274° PORTO SANTO VOR-DME
IRSAN FIX UL600 (AWY-HI) 34,000 ft / 10,363 m 33.16667˚ -16.50444˚ 8 nm 459 nm 301° / 301° -
PELUS FIX UL600 (AWY-HI) 34,000 ft / 10,363 m 33.44528˚ -17.07111˚ 32 nm 492 nm 301° / 300° -
IRKID FIX UL600 (AWY-HI) 34,000 ft / 10,363 m 33.92500˚ -18.06917˚ 57 nm 549 nm 300° / 300° -
3500N02000W LATLON - 34,000 ft / 10,363 m 35.00000˚ -20.00000˚ 115 nm 665 nm 305° / 303° -
ETROX FIX - 34,000 ft / 10,363 m 36.40250˚ -24.02444˚ 213 nm 878 nm 294° / 292° -
VSM VOR H104 (AWY-HI) 28,500 ft / 8,687 m 36.96278˚ -25.16639˚ 64 nm 943 nm 302° / 301° SANTA MARIA VOR-DME
VMG25 FIX H100 (AWY-HI) 22,000 ft / 6,706 m 37.47781˚ -25.51166˚ 35 nm 978 nm 332° / 332° -
O LPLA APT - 0 ft / 0 m 38.76441˚ -27.09348˚ 107 nm 1085 nm 316° / 315° LAJES

Altitude Profile

Advertisement - Login to hide

Weather


0- 5 10 15 20 25 30 35+ Temperature / ° C

Clouds and Precipitation
Forecast for 2017-12-16 06:00 UTC. Updated 15 minutes ago

Ground ~20,000 ft ~40,000 ft Winds

GMMX

Details ICAO GMMX (RAK)
Name MENARA
Region Morocco
Timezone Africa/Casablanca (UTC+0.0)
Stats Elevation 1,545 ft / 471 m (AMSL)
Location 31.606920° -8.036265°
Runways 1
Magnetic Variation 1.999° W

METAR

GMMX 160530Z 08004KT 9999 SCT023 08/05 Q1018 NOSIG

Decode

TAF

TAF GMMX 152300Z 1600/1706 26004KT 9999 SCT023 PROB30 TEMPO 1605/1609 4000 BR

Decode

Departure Runways

ID Width Length Bearing (true) Bearing (mag) Surface Threshold Offset Overrun Length
10 148 ft / 45 m 10,169 ft / 3,100 m 95.99° 97.99° Asphalt 918 ft / 280 m 0 ft / 0 m
28 148 ft / 45 m 10,169 ft / 3,100 m 276.00° 278.00° Asphalt 0 ft / 0 m 0 ft / 0 m

LPLA

Details ICAO LPLA (TER)
Name LAJES
Region Portugal
Timezone Atlantic/Azores (UTC-1.0)
Stats Elevation 180 ft / 55 m (AMSL)
Location 38.764410° -27.093482°
Runways 1
Magnetic Variation 8.934° W

METAR

LPLA 160500Z /////KT 9999 FEW025 16/16 Q1029

Decode

TAF

TAF LPLA 152302Z 1600/1624 27005KT 9999 FEW015 SCT030= TAF LPPD 152300Z 1600/1624 VRB05KT 9999 FEW015 BKN030 TEMPO 1600/1624 SCT018 PROB30 1610/1618 30008KT

Decode

Destination Runways

ID Width Length Bearing (true) Bearing (mag) Surface Threshold Offset Overrun Length
15 197 ft / 60 m 10,869 ft / 3,313 m 140.81° 149.74° Asphalt 0 ft / 0 m 991 ft / 302 m
33 197 ft / 60 m 10,869 ft / 3,313 m 320.82° 329.75° Asphalt 0 ft / 0 m 1,040 ft / 317 m

Approach Navaids

Runway Type Ident Frequency Range Bearing (true) Bearing (mag) Slope Elevation
15 Localiser DK 109.90 MHz 18 nm / 33 km 140.82° 149.76° - 180 ft / 55 m (AMSL)
15 Glidescope DK 109.90 MHz 10 nm / 19 km 140.81° 149.75° 3.00° 159 ft / 48 m (AMSL)
33 Localiser OZ 111.50 MHz 18 nm / 33 km 320.81° 329.75° - 158 ft / 48 m (AMSL)
33 Glidescope OZ 111.50 MHz 10 nm / 19 km 320.81° 329.75° 3.20° 180 ft / 55 m (AMSL)

Popular Alternatives